Location: ???????
(38.3360°N, 23.6977°E)
Time: 21:35:08
(UTC+00:00)

Cosmos 2278 Rocket - Pass Details

Date: 17 November 2025
Orbit: 841 x 843 km, 71.0° (Epoch: 11 December)

Event Time Altitude Azimuth Distance (km) Brightness Sun altitude
Rises 16:05:05 0° 205° (SSW) 3,381 6.0 -10.8°
Reaches altitude 10° 16:07:32 10° 206° (SSW) 2,450 5.2 -11.2°
Maximum altitude 16:13:09 77° 293° (WNW) 866 2.4 -12.3°
Drops below altitude 10° 16:18:49 10° 20° (NNE) 2,465 4.3 -13.4°
Enters shadow 16:21:01 - 21° (NNE) 3,304 4.9 -13.8°
